| time (UTC) | temp F | wind direction | speed MPH | gust MPH | rain 1hr in | rain 24hr in | rain mn in | humidity % | barometer mb |
| 20260505035839 | 61 | 190 | 8.0 | 14.0 | 0.00 | 0.00 | 0.00 | 61 | 1007.1 |
| 20260505034909 | 61 | 199 | 9.0 | 13.0 | 0.00 | 0.00 | 0.00 | 60 | 1007.1 |
| 20260505033839 | 61 | 188 | 8.0 | 12.0 | 0.00 | 0.00 | 0.00 | 60 | 1007.1 |
| 20260505031908 | 62 | 192 | 8.0 | 13.0 | 0.00 | 0.00 | 0.00 | 58 | 1007.3 |
| 20260505030908 | 62 | 194 | 9.0 | 15.0 | 0.00 | 0.00 | 0.00 | 57 | 1007.2 |
| 20260505025908 | 63 | 192 | 7.0 | 14.0 | 0.00 | 0.00 | 0.00 | 57 | 1007.3 |
| 20260505023838 | 62 | 184 | 10.0 | 13.0 | 0.00 | 0.00 | 0.00 | 57 | 1007.3 |
| 20260505022908 | 62 | 186 | 7.0 | 14.0 | 0.00 | 0.00 | 0.00 | 57 | 1007.3 |
| 20260505015907 | 62 | 210 | 7.0 | 10.0 | 0.00 | 0.00 | 0.00 | 57 | 1007.1 |
| 20260505014907 | 62 | 191 | 7.0 | 9.0 | 0.00 | 0.00 | 0.00 | 57 | 1007.1 |
| 20260505013907 | 62 | 174 | 5.0 | 15.0 | 0.00 | 0.00 | 0.00 | 57 | 1007.1 |
| 20260505012907 | 63 | 190 | 7.0 | 10.0 | 0.00 | 0.00 | 0.00 | 55 | 1007.2 |
| 20260505011907 | 63 | 207 | 7.0 | 9.0 | 0.00 | 0.00 | 0.00 | 54 | 1007.2 |
| 20260505010906 | 63 | 209 | 6.0 | 9.0 | 0.00 | 0.00 | 0.00 | 52 | 1007.2 |
| 20260505005906 | 63 | 229 | 4.0 | 7.0 | 0.00 | 0.00 | 0.00 | 52 | 1007.0 |
| 20260505004906 | 63 | 222 | 3.0 | 6.0 | 0.00 | 0.00 | 0.00 | 49 | 1006.8 |
| 20260505003906 | 64 | 209 | 2.0 | 4.0 | 0.00 | 0.00 | 0.00 | 48 | 1006.9 |
| 20260505002906 | 64 | 229 | 2.0 | 4.0 | 0.00 | 0.00 | 0.00 | 47 | 1006.8 |
| 20260505000905 | 64 | 222 | 2.0 | 6.0 | 0.00 | 0.00 | 0.00 | 48 | 1006.7 |
| 20260504235905 | 65 | 223 | 3.0 | 4.0 | 0.00 | 0.00 | 0.00 | 46 | 1006.6 |
| 20260504234905 | 66 | 213 | 1.0 | 5.0 | 0.00 | 0.00 | 0.00 | 45 | 1006.5 |
| 20260504233904 | 66 | 225 | 4.0 | 5.0 | 0.00 | 0.00 | 0.00 | 45 | 1006.5 |
| 20260504231904 | 68 | 221 | 4.0 | 9.0 | 0.00 | 0.00 | 0.00 | 43 | 1006.5 |
| 20260504225904 | 69 | 199 | 7.0 | 12.0 | 0.00 | 0.00 | 0.00 | 41 | 1006.6 |
| 20260504224904 | 70 | 198 | 8.0 | 14.0 | 0.00 | 0.00 | 0.00 | 40 | 1006.7 |
| 20260504223903 | 70 | 172 | 14.0 | 17.0 | 0.00 | 0.00 | 0.00 | 38 | 1006.8 |
| 20260504222903 | 70 | 195 | 4.0 | 9.0 | 0.00 | 0.00 | 0.00 | 39 | 1006.8 |
| 20260504221903 | 70 | 221 | 6.0 | 13.0 | 0.00 | 0.00 | 0.00 | 38 | 1006.7 |
| 20260504220903 | 70 | 192 | 7.0 | 14.0 | 0.00 | 0.00 | 0.00 | 39 | 1006.7 |
| 20260504215903 | 70 | 221 | 6.0 | 17.0 | 0.00 | 0.00 | 0.00 | 38 | 1006.8 |
| 20260504214903 | 70 | 205 | 5.0 | 15.0 | 0.00 | 0.00 | 0.00 | 40 | 1006.9 |
| 20260504213903 | 70 | 187 | 12.0 | 24.0 | 0.00 | 0.00 | 0.00 | 39 | 1006.9 |
| 20260504212903 | 70 | 213 | 14.0 | 19.0 | 0.00 | 0.00 | 0.00 | 39 | 1006.9 |
| 20260504204902 | 70 | 200 | 11.0 | 20.0 | 0.00 | 0.00 | 0.00 | 40 | 1006.9 |
| 20260504203902 | 70 | 274 | 7.0 | 23.0 | 0.00 | 0.00 | 0.00 | 43 | 1007.2 |
| 20260504201901 | 70 | 253 | 2.0 | 13.0 | 0.00 | 0.00 | 0.00 | 41 | 1007.3 |
| 20260504200902 | 70 | 215 | 10.0 | 18.0 | 0.00 | 0.00 | 0.00 | 42 | 1007.5 |
| 20260504194901 | 69 | 223 | 10.0 | 24.0 | 0.00 | 0.00 | 0.00 | 45 | 1007.8 |
| 20260504193901 | 69 | 229 | 12.0 | 23.0 | 0.00 | 0.00 | 0.00 | 44 | 1007.8 |
| 20260504191900 | 68 | 159 | 9.0 | 19.0 | 0.00 | 0.00 | 0.00 | 46 | 1007.8 |
| 20260504185901 | 67 | 188 | 12.0 | 19.0 | 0.00 | 0.00 | 0.00 | 49 | 1008.3 |
| 20260504184900 | 67 | 171 | 16.0 | 17.0 | 0.00 | 0.00 | 0.00 | 50 | 1008.6 |
| 20260504183859 | 68 | 191 | 9.0 | 18.0 | 0.00 | 0.00 | 0.00 | 50 | 1008.8 |
| 20260504182900 | 67 | 293 | 8.0 | 20.0 | 0.00 | 0.00 | 0.00 | 50 | 1008.7 |
| 20260504181859 | 68 | 225 | 7.0 | 20.0 | 0.00 | 0.00 | 0.00 | 50 | 1008.9 |
| 20260504180859 | 67 | 219 | 19.0 | 21.0 | 0.00 | 0.00 | 0.00 | 51 | 1008.6 |
| 20260504175859 | 66 | 201 | 15.0 | 20.0 | 0.00 | 0.00 | 0.00 | 52 | 1008.8 |
| 20260504174859 | 66 | 217 | 11.0 | 20.0 | 0.00 | 0.00 | 0.00 | 52 | 1008.7 |
| 20260504173859 | 66 | 235 | 11.0 | 21.0 | 0.00 | 0.00 | 0.00 | 52 | 1008.8 |
| 20260504171858 | 65 | 282 | 10.0 | 22.0 | 0.00 | 0.00 | 0.00 | 54 | 1008.9 |
| 20260504150856 | 60 | 186 | 12.0 | 21.0 | 0.00 | 0.00 | 0.00 | 59 | 1009.9 |
| 20260504081849 | 46 | 193 | 7.0 | 9.0 | 0.00 | 0.00 | 0.00 | 67 | 1010.8 |
| 20260504045845 | 50 | 189 | 6.0 | 10.0 | 0.00 | 0.00 | 0.00 | 63 | 1011.1 |
| 20260504043845 | 50 | 188 | 5.0 | 9.0 | 0.00 | 0.00 | 0.00 | 64 | 1011.1 |
| 20260504042845 | 51 | 159 | 7.0 | 9.0 | 0.00 | 0.00 | 0.00 | 62 | 1011.4 |
| 20260504041845 | 51 | 173 | 8.0 | 10.0 | 0.00 | 0.00 | 0.00 | 62 | 1011.3 |
| 20260504040845 | 51 | 173 | 5.0 | 9.0 | 0.00 | 0.00 | 0.00 | 62 | 1011.4 |